Location: Ab? ar R?sh Ba?r?
(24.1861°N, 32.8847°E)
Time: 10:50:06
(UTC+00:00)

SL-08 RB Rocket - Pass Details

Date: 24 October 2021
Orbit: 646 x 683 km, 97.8° (Epoch: 04 December)

Event Time Altitude Azimuth Distance (km) Brightness Sun altitude
Rises 16:27:41 0° 159° (SSE) 2,964 6.9 -17.3°
Reaches altitude 10° 16:29:54 10° 155° (SSE) 2,061 6.0 -17.8°
Maximum altitude 16:34:19 58° 77° (ENE) 769 3.7 -18.8°
Drops below altitude 10° 16:38:48 10° 358° (N) 2,093 6.2 -19.8°
Sets 16:41:04 0° 354° (N) 3,015 7.1 -20.3°
